Probability
39 35 35 29 32 29 26 16 10 0 0 3 10 16 13 19 3 0 10 0 0 0 0 0 0 0 0 0 0 0 0 0 0 0 0 0 0 0
39 39 35 29 26 29 26 23 19 6 3 6 10 10 6 6 3 10 10 0 0 0 0 0 0 0 0 0 0 0 0 0 0 0 0 0 0 0
29 29 32 29 26 26 23 26 23 13 6 6 6 10 10 6 3 6 16 6 0 0 0 0 0 0 0 0 0 0 0 0 0 0 0 0 0 0
19 23 16 19 26 26 23 23 19 16 6 6 6 6 3 6 3 6 10 3 10 0 0 0 0 0 0 0 0 0 0 0 0 0 0 0 0 0
10 16 16 19 23 16 19 16 16 10 10 10 3 3 3 6 6 6 3 3 3 0 0 0 0 0 0 0 0 0 0 0 0 0 0 0 0 0
16 16 16 16 13 10 13 13 10 10 13 13 3 0 0 0 0 0 0 0 3 0 0 0 0 0 0 0 0 0 0 0 0 0 0 0 0 0
16 13 13 6 3 3 0 6 6 6 6 3 0 0 0 0 0 0 0 0 0 0 0 0 0 0 0 0 0 0 0 0 0 0 0 0 0 0
16 13 10 3 0 0 0 0 0 0 0 3 0 0 0 0 0 0 0 0 0 0 0 0 0 0 0 0 0 0 0 0 0 0 0 0 0 0
23 19 6 0 0 3 0 0 0 0 0 0 0 0 0 0 0 0 0 0 0 0 0 0 0 0 0 0 0 0 0 0 0 0 0 0 0 0
16 13 16 10 0 0 0 0 6 0 0 0 0 0 0 0 0 0 0 0 0 0 0 0 0 0 0 0 0 0 0 0 0 0 0 0 0 0
6 6 6 6 0 0 0 0 0 3 0 0 0 0 0 0 0 0 0 0 0 0 0 0 0 0 0 0 0 0 0 0 0 0 0 0 0 0
6 3 0 0 0 0 0 0 0 0 0 0 0 0 0 0 0 0 0 0 0 0 0 0 0 0 0 0 0 0 0 0 0 0 0 0 0 0
3 3 0 0 0 0 0 0 0 0 0 0 0 0 3 0 0 0 0 0 0 0 0 0 0 0 0 0 0 0 0 0 3 0 0 0 0 0
0 3 0 0 0 0 0 0 0 0 0 0 0 0 0 0 0 0 0 0 0 0 0 0 0 0 0 0 0 0 3 3 6 0 0 0 0 0
0 0 0 0 0 0 0 0 0 0 0 0 0 0 0 0 0 0 3 0 0 0 0 0 0 0 0 0 0 0 3 3 6 6 3 0 0 0
0 0 0 0 0 0 0 0 0 0 0 0 0 0 0 0 0 0 0 0 0 0 0 0 3 0 3 0 0 0 3 3 3 3 3 0 3 0
0 0 0 0 0 0 0 0 0 0 0 0 0 0 0 0 0 3 3 0 0 0 0 0 0 3 3 0 0 0 0 0 3 3 3 0 0 0
0 0 0 0 0 0 0 0 0 0 0 0 0 0 0 0 0 3 3 0 0 0 0 0 0 0 0 0 0 0 0 0 0 3 3 0 0 0
0 0 0 0 0 0 0 0 0 0 0 0 0 0 0 0 0 0 3 3 0 0 0 0 0 0 0 0 0 0 0 0 0 0 0 0 0 0
0 0 0 0 0 3 3 3 3 3 3 3 3 3 3 3 3 3 3 3 0 0 0 0 0 0 0 0 0 0 0 0 0 0 0 0 0 0
0 0 0 0 0 3 3 3 3 3 3 3 3 3 3 3 3 3 3 0 0 0 0 0 0 0 0 0 0 0 0 0 0 0 0 0 0 0
0 0 0 3 3 3 3 3 3 3 3 3 3 3 3 3 3 3 3 0 0 0 0 0 0 0 0 0 0 0 0 0 0 0 0 0 0 0
0 6 6 3 0 3 3 3 3 3 3 3 3 3 3 3 3 0 0 0 0 0 0 0 0 0 0 0 0 0 0 0 0 0 0 0 0 0
Height
5799 5798 5798 5797 5797 5796 5795 5795 5794 5794 5794 5794 5795 5795 5796 5796 5797 5798 5799 5799 5800 5801 5801 5802 5803 5804 5805 5806 5806 5807 5808 5808 5809 5810 5811 5811 5812 5812
5792 5791 5791 5790 5790 5789 5788 5787 5787 5786 5786 5786 5787 5787 5787 5788 5789 5789 5790 5791 5791 5792 5793 5793 5794 5795 5796 5796 5797 5798 5799 5799 5800 5801 5802 5803 5803 5804
5785 5784 5783 5783 5782 5781 5780 5780 5779 5779 5778 5778 5778 5779 5779 5779 5780 5781 5782 5782 5783 5783 5784 5784 5785 5786 5786 5787 5788 5789 5789 5790 5791 5792 5792 5793 5794 5795
5778 5777 5776 5775 5775 5774 5773 5772 5771 5770 5770 5769 5770 5770 5770 5771 5771 5772 5773 5773 5774 5775 5775 5775 5776 5776 5777 5777 5778 5779 5780 5781 5782 5782 5783 5784 5785 5785
5770 5769 5769 5768 5767 5766 5765 5764 5763 5762 5761 5761 5761 5761 5762 5762 5763 5763 5764 5764 5764 5765 5766 5766 5766 5767 5767 5768 5769 5770 5770 5771 5772 5773 5773 5774 5775 5775
5763 5762 5761 5760 5759 5758 5757 5755 5754 5753 5752 5752 5752 5752 5753 5753 5754 5754 5755 5755 5755 5756 5756 5757 5757 5757 5758 5759 5760 5760 5761 5761 5762 5763 5763 5764 5765 5766
5756 5754 5753 5752 5750 5749 5748 5747 5746 5745 5744 5744 5744 5744 5744 5744 5745 5745 5746 5745 5746 5746 5747 5747 5748 5748 5749 5749 5750 5750 5751 5752 5752 5753 5753 5754 5755 5757
5748 5746 5745 5743 5742 5741 5740 5739 5738 5737 5736 5736 5736 5736 5736 5736 5736 5736 5737 5737 5738 5738 5737 5738 5738 5739 5740 5740 5740 5741 5741 5742 5743 5743 5744 5745 5746 5747
5740 5738 5737 5735 5734 5733 5732 5731 5730 5729 5728 5728 5728 5728 5727 5727 5727 5727 5727 5727 5728 5728 5728 5728 5728 5728 5729 5730 5730 5731 5731 5732 5733 5733 5734 5735 5736 5737
5731 5730 5729 5727 5726 5725 5724 5723 5721 5720 5720 5720 5720 5719 5718 5718 5718 5718 5718 5718 5718 5718 5718 5719 5719 5719 5720 5721 5721 5721 5721 5721 5722 5723 5724 5725 5726 5727
5724 5722 5721 5720 5719 5717 5716 5715 5714 5712 5711 5711 5711 5710 5710 5709 5709 5709 5709 5708 5709 5709 5709 5710 5710 5710 5710 5711 5711 5711 5711 5711 5712 5713 5714 5715 5716 5717
5716 5715 5713 5712 5711 5709 5708 5706 5705 5704 5703 5702 5702 5701 5701 5700 5699 5699 5699 5699 5700 5700 5700 5700 5700 5701 5701 5701 5701 5701 5701 5701 5702 5703 5704 5704 5705 5706
5708 5707 5706 5705 5703 5701 5699 5698 5697 5696 5694 5693 5692 5692 5691 5691 5690 5690 5690 5690 5690 5691 5691 5691 5691 5691 5691 5692 5691 5691 5691 5692 5692 5693 5693 5694 5695 5696
5700 5699 5697 5696 5695 5693 5691 5690 5688 5687 5686 5685 5684 5683 5683 5682 5682 5681 5681 5681 5681 5681 5681 5681 5682 5681 5681 5682 5682 5681 5681 5681 5682 5682 5683 5684 5685 5686
5691 5690 5689 5687 5686 5685 5683 5682 5680 5679 5677 5676 5675 5674 5674 5673 5673 5672 5672 5672 5672 5672 5672 5672 5672 5672 5672 5672 5672 5671 5671 5672 5671 5672 5673 5674 5675 5676
5682 5681 5680 5678 5677 5675 5674 5673 5672 5670 5669 5668 5667 5666 5665 5664 5663 5663 5663 5663 5663 5664 5663 5663 5663 5662 5662 5662 5662 5662 5662 5662 5662 5662 5663 5664 5665 5666
5673 5672 5672 5670 5669 5667 5666 5665 5663 5662 5660 5659 5658 5657 5656 5655 5655 5654 5654 5654 5654 5654 5654 5654 5653 5653 5653 5653 5653 5653 5653 5653 5653 5653 5654 5655 5656 5657
5664 5664 5663 5662 5660 5659 5657 5656 5655 5654 5652 5650 5649 5648 5646 5646 5646 5645 5645 5645 5645 5645 5644 5644 5644 5644 5644 5644 5643 5643 5644 5644 5644 5644 5645 5646 5648 5649
5657 5656 5655 5653 5652 5650 5649 5648 5646 5645 5643 5642 5640 5639 5638 5637 5637 5637 5636 5636 5635 5635 5635 5635 5635 5635 5635 5635 5635 5635 5635 5635 5635 5636 5637 5638 5640 5641
5649 5648 5646 5645 5643 5642 5641 5639 5638 5636 5635 5633 5632 5631 5630 5629 5629 5628 5628 5627 5627 5626 5626 5626 5626 5626 5625 5625 5626 5626 5626 5627 5627 5628 5629 5630 5631 5632
5642 5640 5638 5637 5635 5633 5632 5630 5629 5628 5627 5625 5624 5623 5622 5621 5620 5620 5619 5619 5618 5618 5617 5617 5617 5617 5616 5616 5617 5618 5618 5618 5619 5620 5621 5622 5623 5624
5634 5632 5631 5629 5627 5626 5624 5622 5621 5620 5619 5617 5616 5615 5614 5613 5612 5612 5611 5611 5611 5610 5610 5609 5609 5609 5609 5609 5609 5610 5610 5610 5611 5612 5613 5614 5615 5616
5626 5624 5623 5621 5619 5617 5616 5614 5613 5612 5611 5609 5608 5607 5606 5605 5605 5604 5604 5604 5603 5603 5602 5602 5601 5601 5601 5601 5602 5602 5603 5603 5604 5605 5606 5606 5607 5608
Wind_Speed
25 25 25 25 26 26 27 27 28 28 28 28 29 29 29 29 28 29 28 28 29 30 30 30 30 31 31 31 31 32 32 32 32 32 31 31 31 31
26 27 27 27 28 28 28 28 28 28 28 28 29 29 29 29 29 29 28 29 29 30 31 32 32 32 32 32 32 33 33 33 33 32 32 31 31 31
26 27 27 28 28 29 29 30 29 29 30 30 29 29 30 30 30 30 30 30 30 31 31 32 32 33 33 33 32 32 32 32 33 32 32 31 32 32
28 28 28 28 29 29 29 29 30 30 30 30 30 30 30 30 30 31 31 31 32 32 32 32 33 33 33 33 33 33 33 33 33 32 32 32 32 33
27 28 27 28 29 29 29 29 29 30 31 31 31 30 30 29 29 30 31 31 32 33 33 32 33 33 34 34 34 34 33 33 33 33 32 32 32 32
26 27 27 29 29 30 30 29 29 30 30 30 30 29 29 30 30 30 31 31 32 32 33 33 33 33 33 33 34 34 33 33 33 33 33 33 32 32
27 28 29 30 30 30 30 30 29 29 28 28 29 29 29 30 30 29 30 30 31 32 32 32 33 33 33 33 32 32 33 33 32 33 33 33 32 32
29 30 30 31 31 30 30 29 28 28 27 27 27 28 29 29 30 30 30 30 31 31 32 32 33 33 33 33 33 32 32 32 32 31 32 32 33 33
30 30 30 30 30 30 29 28 28 28 28 28 28 29 29 30 30 30 30 31 32 31 32 32 32 31 32 33 33 32 32 32 32 31 31 32 33 34
30 30 29 28 29 29 28 28 29 29 28 29 29 30 31 31 31 31 31 31 31 31 32 31 31 31 32 32 33 33 33 33 33 33 32 32 32 33
29 28 28 28 28 29 28 28 28 28 29 30 30 31 31 31 31 31 31 32 31 31 32 31 31 31 31 31 31 32 33 33 33 34 33 33 32 33
29 29 29 29 29 29 29 29 29 29 30 30 31 31 31 31 31 31 32 31 31 31 31 32 32 32 32 32 32 32 32 32 32 33 33 33 33 33
31 31 30 30 30 30 29 29 29 29 30 30 30 30 30 30 30 31 31 31 31 31 31 31 31 32 32 31 31 31 32 31 31 32 31 31 32 33
30 30 30 30 29 29 28 28 29 29 30 29 29 29 29 29 30 30 31 31 31 30 30 30 30 31 32 32 32 32 32 32 31 31 32 31 31 32
30 30 30 30 29 28 28 28 28 28 28 28 28 28 28 29 29 29 30 29 30 30 30 30 31 32 32 31 30 30 30 31 31 31 31 31 30 30
30 30 29 29 28 28 28 29 29 28 28 28 28 28 28 28 28 28 29 29 29 29 30 31 31 32 31 30 30 29 29 30 30 30 30 30 30 29
28 27 27 27 27 28 28 28 28 28 29 29 28 28 28 27 27 28 28 29 29 30 30 30 30 30 30 29 29 29 29 28 28 28 28 28 28 28
26 26 27 27 27 27 28 28 28 28 28 29 28 28 28 27 27 27 27 27 28 30 30 30 30 29 29 29 28 27 27 26 26 26 26 26 26 26
26 27 27 27 26 26 27 27 27 28 28 28 28 27 28 27 27 27 27 27 28 28 29 29 29 29 29 29 28 28 27 26 25 25 25 25 25 25
26 26 26 25 25 26 26 26 27 27 27 27 27 27 26 27 27 27 27 26 26 26 27 27 28 28 28 28 28 27 26 25 25 24 25 24 24 24
26 26 26 26 25 26 26 26 26 26 26 25 25 25 25 25 25 25 25 25 25 25 25 25 26 26 26 26 25 25 25 25 24 24 23 24 24 24
25 26 26 26 26 26 26 26 25 25 25 25 24 24 24 24 24 24 24 24 23 23 23 23 24 24 25 24 24 23 24 24 24 24 24 24 24 23
25 26 26 26 25 25 25 26 26 25 25 25 24 24 24 24 23 23 23 22 22 23 23 23 23 23 23 23 23 23 23 23 23 23 23 24 24 23
Wind_Direction
279 279 279 279 280 280 280 279 277 275 274 272 272 271 271 270 269 269 270 268 267 266 265 264 263 263 264 264 264 265 265 265 265 266 268 268 268 269
278 277 276 277 279 281 282 281 279 277 277 275 273 272 271 270 270 269 268 267 267 267 267 265 264 265 265 264 264 264 265 265 265 266 267 267 267 268
278 277 277 278 280 282 281 280 279 278 277 275 274 273 272 272 272 270 269 269 267 267 268 266 265 265 266 265 264 265 266 266 266 266 266 266 265 266
277 277 278 280 281 282 281 281 281 279 277 275 274 273 272 272 271 270 270 270 266 266 267 267 266 265 265 266 266 267 268 267 267 267 266 267 266 266
279 277 278 281 282 281 280 280 280 278 277 277 276 274 275 274 272 271 270 270 268 266 266 265 266 266 265 265 266 266 266 267 267 267 266 266 266 266
281 281 281 282 282 282 281 280 279 279 278 278 276 275 275 275 273 272 272 271 269 268 267 265 265 266 265 266 266 267 266 267 267 266 265 265 265 265
284 284 283 283 283 283 282 282 280 280 281 280 275 273 274 274 273 274 273 272 271 271 268 266 266 266 267 266 267 267 267 267 267 265 264 263 262 263
286 286 285 284 283 283 282 282 280 280 280 278 275 274 275 275 274 273 274 273 272 270 269 269 268 266 265 266 266 267 268 267 266 265 264 263 263 262
286 286 286 285 284 284 284 283 282 280 279 277 276 275 275 275 274 274 274 274 272 270 269 270 269 267 266 265 266 267 267 268 267 266 264 263 263 263
287 286 285 285 285 285 283 282 280 279 280 278 278 276 274 275 275 275 274 274 274 272 270 270 270 269 267 265 265 266 267 267 267 267 266 265 266 264
287 287 286 287 287 286 285 283 282 280 279 278 277 276 276 276 276 276 276 276 275 273 272 270 272 271 269 267 266 267 267 267 266 266 265 265 266 266
285 286 286 286 287 287 285 284 283 282 281 280 279 277 277 276 275 276 275 274 274 274 272 271 272 273 271 271 271 270 268 267 267 266 266 266 265 265
285 286 286 287 287 286 285 285 283 283 283 282 280 278 278 276 277 276 274 273 274 274 273 273 274 274 273 273 272 272 271 270 268 268 267 267 266 265
284 285 285 285 285 285 285 285 286 285 285 283 282 281 279 278 278 277 274 273 273 274 274 275 276 276 275 275 274 272 271 271 271 269 268 268 267 266
283 284 284 283 283 282 282 284 286 286 286 284 283 281 279 278 278 277 275 273 273 273 275 276 276 278 278 277 277 274 271 270 271 270 269 267 266 266
283 284 285 285 284 283 283 284 286 287 287 287 286 282 280 279 279 278 275 273 272 273 274 275 275 276 277 277 276 274 273 272 271 270 268 265 265 266
285 284 285 285 285 284 284 285 286 287 287 288 287 284 281 279 278 278 277 274 273 273 274 276 276 275 277 277 275 274 273 272 272 270 268 265 264 265
286 287 286 285 285 285 285 285 286 287 287 287 287 285 282 280 279 279 279 276 276 276 275 275 274 274 275 276 274 272 272 270 269 268 267 265 264 264
287 287 287 286 285 285 286 285 285 286 286 287 287 285 283 282 280 280 279 279 279 277 276 275 274 274 275 275 272 270 270 269 269 267 265 264 264 263
287 286 287 288 288 287 287 287 286 287 288 288 286 284 283 281 280 279 279 279 279 278 277 275 274 274 275 274 272 268 268 267 266 265 264 263 263 264
288 287 287 288 289 288 288 288 288 287 288 289 286 283 282 282 281 280 279 278 279 279 279 278 276 275 274 274 273 268 267 266 265 264 262 261 262 264
290 289 289 289 289 289 288 288 288 287 288 289 288 285 283 282 281 281 279 278 280 281 282 280 277 274 273 275 273 270 268 267 265 263 263 262 260 262
290 290 290 289 289 289 288 288 288 289 288 288 287 284 282 281 281 280 278 277 279 281 282 281 278 275 272 273 275 271 268 267 266 264 263 262 261 260